SR7U-1 Weather Reports


time (UTC)temp
C
wind
direction
speed
KPH
gust
KPH
rain 1hr
cm
rain 24hr
cm
rain mn
cm
humidity
%
barometer
mb
20260504173708 20 0.0 0.0 0.00 0.00 0.00 37 1011.6
20260504172425 22 0.0 0.0 0.00 0.00 0.00 33 1011.6
20260504170952 23 0.0 0.0 0.00 0.00 0.00 30 1011.7
20260504160159 25 0.0 0.0 0.00 0.00 0.00 23 1011.7
20260504140555 26 0.0 0.0 0.00 0.00 0.00 23 1012.7
20260504100335 23 0.0 0.0 0.00 0.00 0.00 27 1014.9
20260504081353 20 0.0 0.0 0.00 0.00 0.00 33 1015.3
20260504050205 11 0.0 0.0 0.00 0.00 0.00 64 1015.4
20260504044910 10 0.0 0.0 0.00 0.00 0.00 66 1015.4
20260504043410 10 0.0 0.0 0.00 0.00 0.00 67 1015.3
20260504041934 9 0.0 0.0 0.00 0.00 0.00 69 1015.2
20260504040635 8 0.0 0.0 0.00 0.00 0.00 70 1015.1
20260504035422 7 0.0 0.0 0.00 0.00 0.00 71 1015.1
20260504034155 7 0.0 0.0 0.00 0.00 0.00 73 1015.1
20260504032658 6 0.0 0.0 0.00 0.00 0.00 75 1015.0
20260504031500 5 0.0 0.0 0.00 0.00 0.00 79 1014.6
20260504030025 6 0.0 0.0 0.00 0.00 0.00 76 1014.9
20260504024600 6 0.0 0.0 0.00 0.00 0.00 77 1014.9
20260504023310 7 0.0 0.0 0.00 0.00 0.00 75 1014.9
20260504022045 7 0.0 0.0 0.00 0.00 0.00 73 1015.0
20260504020845 8 0.0 0.0 0.00 0.00 0.00 72 1014.9
20260504015515 8 0.0 0.0 0.00 0.00 0.00 71 1014.9
20260504014057 7 0.0 0.0 0.00 0.00 0.00 72 1015.0
20260504012825 8 0.0 0.0 0.00 0.00 0.00 72 1015.1
20260504011540 8 0.0 0.0 0.00 0.00 0.00 71 1015.2
20260504010135 8 0.0 0.0 0.00 0.00 0.00 71 1015.3
20260504004725 8 0.0 0.0 0.00 0.00 0.00 71 1015.2
20260504003355 8 0.0 0.0 0.00 0.00 0.00 72 1015.3
20260504002130 8 0.0 0.0 0.00 0.00 0.00 71 1015.2
20260504000915 10 0.0 0.0 0.00 0.00 0.00 67 1015.3
20260503235435 10 0.0 0.0 0.00 0.00 0.00 65 1015.4
20260503234042 10 0.0 0.0 0.00 0.00 0.00 63 1015.3
20260503232730 10 0.0 0.0 0.00 0.00 0.00 62 1015.4
20260503231353 11 0.0 0.0 0.00 0.00 0.00 62 1015.5
20260503230050 11 0.0 0.0 0.00 0.00 0.00 61 1015.5
20260503224700 12 0.0 0.0 0.00 0.00 0.00 57 1015.5
20260503223255 12 0.0 0.0 0.00 0.00 0.00 55 1015.5
20260503221830 11 0.0 0.0 0.00 0.00 0.00 54 1015.4
20260503220455 11 0.0 0.0 0.00 0.00 0.00 60 1015.5
20260503215234 12 0.0 0.0 0.00 0.00 0.00 51 1015.6
20260503213802 13 0.0 0.0 0.00 0.00 0.00 50 1015.6
20260503212305 16 0.0 0.0 0.00 0.00 0.00 41 1015.4
20260503210810 17 0.0 0.0 0.00 0.00 0.00 39 1015.3
20260503205420 17 0.0 0.0 0.00 0.00 0.00 38 1015.3
20260503204020 16 0.0 0.0 0.00 0.00 0.00 37 1015.2
20260503202610 17 0.0 0.0 0.00 0.00 0.00 37 1015.1
20260503201302 18 0.0 0.0 0.00 0.00 0.00 35 1015.2
20260503195825 18 0.0 0.0 0.00 0.00 0.00 35 1015.2
20260503194510 19 0.0 0.0 0.00 0.00 0.00 33 1015.1
20260503193240 19 0.0 0.0 0.00 0.00 0.00 33 1015.2
20260503191809 20 0.0 0.0 0.00 0.00 0.00 32 1015.2
20260503190435 20 0.0 0.0 0.00 0.00 0.00 31 1015.1
20260503185218 20 0.0 0.0 0.00 0.00 0.00 31 1015.2
20260503184017 20 0.0 0.0 0.00 0.00 0.00 31 1015.1
20260503182625 20 0.0 0.0 0.00 0.00 0.00 32 1015.0
20260503181215 21 0.0 0.0 0.00 0.00 0.00 31 1015.0
20260503175825 20 0.0 0.0 0.00 0.00 0.00 31 1014.9
20260503174615 21 0.0 0.0 0.00 0.00 0.00 30 1014.8